Regional Weather Roundup
Issued by NWS

Home | Current Version | Previous Version | Text Only | Print | Product List | Glossary Off
Versions: 1 2 3 4 5 6 7 8 9 10 11 12 13 14 15 16 17 18 19 20 21 22 23 24 25 26 27 28 29 30 31 32 33 34 35 36 37 38 39 40 41 42 43 44 45 46 47 48 49 50

000
ASUS43 KLMK 200710
RWRKY
KENTUCKY REGIONAL WEATHER ROUNDUP
NATIONAL WEATHER SERVICE LOUISVILLE KY
300 AM EDT SUN AUG 20 2017

NOTE "FAIR" INDICATES FEW OR NO CLOUDS BELOW 12,000 FEET
WITH NO SIGNIFICANT WEATHER AND/OR OBSTRUCTIONS TO VISIBILITY.

KYZ001>023-026-027-061>063-070>075-200800-
WESTERN AND SOUTH CENTRAL KENTUCKY

CITY           SKY/WX    TMP DP  RH WIND       PRES   REMARKS
PADUCAH        CLEAR     72  67  84 CALM      29.98F
HENDERSON      CLEAR     67  66  97 CALM      29.99S
OWENSBORO      CLEAR     72  70  93 CALM      30.00S
HOPKINSVILLE   PTCLDY    74  72  92 CALM      30.00S
BOWLING GREEN  CLEAR     72  71  97 CALM      30.01S
GLASGOW        CLEAR    N/A N/A N/A CALM      30.02S
$$

KYZ024-025-028>034-038-045-046-053-200800-
NORTH CENTRAL KENTUCKY

CITY           SKY/WX    TMP DP  RH WIND       PRES   REMARKS
LOUISVILLE/SDF CLEAR     74  70  87 SE3       30.00S
LOUISVILLE/LOU CLEAR     73  70  90 S5        30.01S
FORT KNOX      CLEAR     71  69  95 CALM      30.00F
$$

KYZ035>037-039>044-047>052-055>060-089>105-200800-
NORTHEAST KENTUCKY

CITY           SKY/WX    TMP DP  RH WIND       PRES   REMARKS
LEXINGTON      CLEAR     71  66  84 S5        30.04S
COVINGTON      CLOUDY    72  71  97 CALM      30.03S
FRANKFORT      CLEAR     69  66  90 CALM      30.02S
$$

KYZ054-064>069-076>088-106>120-200800-
SOUTHEAST KENTUCKY

CITY           SKY/WX    TMP DP  RH WIND       PRES   REMARKS
JACKSON        CLEAR     70  67  90 CALM      30.07S
LONDON         CLEAR     68  66  93 CALM      30.07R FOG
SOMERSET       CLEAR     64  64 100 CALM      30.06S
MIDDLESBORO    CLEAR     66  66 100 CALM      30.09S
MONTICELLO     SUNNY     65  65 100 W13       30.07S
$$





USA.gov is the U.S. government's official web portal to all federal, state and local government web resources and services.